Year,Month,Day,Hour,Minute,Value (Times are PST for temperature in C)
2018,03,06,00,00,3.30
2018,03,06,00,01,3.30
2018,03,06,00,02,3.30
2018,03,06,00,03,3.30
2018,03,06,00,04,3.30
2018,03,06,00,05,3.30
2018,03,06,00,06,3.20
2018,03,06,00,07,3.20
2018,03,06,00,08,3.20
2018,03,06,00,09,3.20
2018,03,06,00,10,3.20
2018,03,06,00,11,3.10
2018,03,06,00,12,3.10
2018,03,06,00,13,3.10
2018,03,06,00,14,3.10
2018,03,06,00,15,3.10
2018,03,06,00,16,3.00
2018,03,06,00,17,3.00
2018,03,06,00,18,3.00
2018,03,06,00,19,3.00
2018,03,06,00,20,2.90
2018,03,06,00,21,2.90
2018,03,06,00,22,2.80
2018,03,06,00,23,2.80
2018,03,06,00,24,2.80
2018,03,06,00,25,2.70
2018,03,06,00,26,2.70
2018,03,06,00,27,2.70
2018,03,06,00,28,2.60
2018,03,06,00,29,2.60
2018,03,06,00,30,2.60
2018,03,06,00,31,2.60
2018,03,06,00,32,2.60
2018,03,06,00,33,2.60
2018,03,06,00,34,2.50
2018,03,06,00,35,2.50
2018,03,06,00,36,2.50
2018,03,06,00,37,2.40
2018,03,06,00,38,2.40
2018,03,06,00,39,2.40
2018,03,06,00,40,2.40
2018,03,06,00,41,2.40
2018,03,06,00,42,2.40
2018,03,06,00,43,2.40
2018,03,06,00,44,2.40
2018,03,06,00,45,2.40
2018,03,06,00,46,2.40
2018,03,06,00,47,2.40
2018,03,06,00,48,2.40
2018,03,06,00,49,2.40
2018,03,06,00,50,2.40
2018,03,06,00,51,2.40
2018,03,06,00,52,2.40
2018,03,06,00,53,2.40
2018,03,06,00,54,2.40
2018,03,06,00,55,2.40
2018,03,06,00,56,2.40
2018,03,06,00,57,2.40
2018,03,06,00,58,2.40
2018,03,06,00,59,2.40
2018,03,06,01,00,2.40
2018,03,06,01,01,2.40
2018,03,06,01,02,2.40
2018,03,06,01,03,2.40
2018,03,06,01,04,2.40
2018,03,06,01,05,2.40
2018,03,06,01,06,2.40
2018,03,06,01,07,2.40
2018,03,06,01,08,2.40
2018,03,06,01,09,2.40
2018,03,06,01,10,2.40
2018,03,06,01,11,2.40
2018,03,06,01,12,2.40
2018,03,06,01,13,2.40
2018,03,06,01,14,2.40
2018,03,06,01,15,2.40
2018,03,06,01,16,2.40
2018,03,06,01,17,2.40
2018,03,06,01,18,2.40
2018,03,06,01,19,2.40
2018,03,06,01,20,2.40
2018,03,06,01,21,2.40
2018,03,06,01,22,2.40
2018,03,06,01,23,2.40
2018,03,06,01,24,2.40
2018,03,06,01,25,2.40
2018,03,06,01,26,2.40
2018,03,06,01,27,2.40
2018,03,06,01,28,2.40
2018,03,06,01,29,2.40
2018,03,06,01,30,2.30
2018,03,06,01,31,2.30
2018,03,06,01,32,2.30
2018,03,06,01,33,2.30
2018,03,06,01,34,2.30
2018,03,06,01,35,2.30
2018,03,06,01,36,2.30
2018,03,06,01,37,2.30
2018,03,06,01,38,2.30
2018,03,06,01,39,2.30
2018,03,06,01,40,2.30
2018,03,06,01,41,2.30
2018,03,06,01,42,2.30
2018,03,06,01,43,2.30
2018,03,06,01,44,2.30
2018,03,06,01,45,2.30
2018,03,06,01,46,2.30
2018,03,06,01,47,2.30
2018,03,06,01,48,2.30
2018,03,06,01,49,2.30
2018,03,06,01,50,2.30
2018,03,06,01,51,2.30
2018,03,06,01,52,2.30
2018,03,06,01,53,2.30
2018,03,06,01,54,2.30
2018,03,06,01,55,2.30
2018,03,06,01,56,2.30
2018,03,06,01,57,2.30
2018,03,06,01,58,2.30
2018,03,06,01,59,2.30
2018,03,06,02,00,2.30
2018,03,06,02,01,2.30
2018,03,06,02,02,2.30
2018,03,06,02,03,2.30
2018,03,06,02,04,2.30
2018,03,06,02,05,2.30
2018,03,06,02,06,2.30
2018,03,06,02,07,2.30
2018,03,06,02,08,2.30
2018,03,06,02,09,2.30
2018,03,06,02,10,2.30
2018,03,06,02,11,2.30
2018,03,06,02,12,2.40
2018,03,06,02,13,2.40
2018,03,06,02,14,2.30
2018,03,06,02,15,2.40
2018,03,06,02,16,2.40
2018,03,06,02,17,2.40
2018,03,06,02,18,2.40
2018,03,06,02,19,2.40
2018,03,06,02,20,2.40
2018,03,06,02,21,2.40
2018,03,06,02,22,2.40
2018,03,06,02,23,2.40
2018,03,06,02,24,2.40
2018,03,06,02,25,2.40
2018,03,06,02,26,2.40
2018,03,06,02,27,2.40
2018,03,06,02,28,2.40
2018,03,06,02,29,2.40
2018,03,06,02,30,2.40
2018,03,06,02,31,2.30
2018,03,06,02,32,2.30
2018,03,06,02,33,2.30
2018,03,06,02,34,2.30
2018,03,06,02,35,2.30
2018,03,06,02,36,2.30
2018,03,06,02,37,2.30
2018,03,06,02,38,2.30
2018,03,06,02,39,2.30
2018,03,06,02,40,2.30
2018,03,06,02,41,2.30
2018,03,06,02,42,2.30
2018,03,06,02,43,2.30
2018,03,06,02,44,2.30
2018,03,06,02,45,2.30
2018,03,06,02,46,2.30
2018,03,06,02,47,2.30
2018,03,06,02,48,2.30
2018,03,06,02,49,2.30
2018,03,06,02,50,2.30
2018,03,06,02,51,2.40
2018,03,06,02,52,2.40
2018,03,06,02,53,2.40
2018,03,06,02,54,2.40
2018,03,06,02,55,2.40
2018,03,06,02,56,2.40
2018,03,06,02,57,2.40
2018,03,06,02,58,2.40
2018,03,06,02,59,2.40
2018,03,06,03,00,2.40
2018,03,06,03,01,2.40
2018,03,06,03,02,2.40
2018,03,06,03,03,2.40
2018,03,06,03,04,2.40
2018,03,06,03,05,2.40
2018,03,06,03,06,2.40
2018,03,06,03,07,2.40
2018,03,06,03,08,2.50
2018,03,06,03,09,2.50
2018,03,06,03,10,2.50
2018,03,06,03,11,2.50
2018,03,06,03,12,2.50
2018,03,06,03,13,2.50
2018,03,06,03,14,2.50
2018,03,06,03,15,2.50
2018,03,06,03,16,2.50
2018,03,06,03,17,2.50
2018,03,06,03,18,2.50
2018,03,06,03,19,2.50
2018,03,06,03,20,2.50
2018,03,06,03,21,2.50
2018,03,06,03,22,2.50
2018,03,06,03,23,2.50
2018,03,06,03,24,2.50
2018,03,06,03,25,2.50
2018,03,06,03,26,2.60
2018,03,06,03,27,2.50
2018,03,06,03,28,2.60
2018,03,06,03,29,2.50
2018,03,06,03,30,2.60
2018,03,06,03,31,2.60
2018,03,06,03,32,2.60
2018,03,06,03,33,2.60
2018,03,06,03,34,2.60
2018,03,06,03,35,2.60
2018,03,06,03,36,2.60
2018,03,06,03,37,2.60
2018,03,06,03,38,2.60
2018,03,06,03,39,2.60
2018,03,06,03,40,2.60
2018,03,06,03,41,2.60
2018,03,06,03,42,2.70
2018,03,06,03,43,2.70
2018,03,06,03,44,2.70
2018,03,06,03,45,2.70
2018,03,06,03,46,2.70
2018,03,06,03,47,2.70
2018,03,06,03,48,2.70
2018,03,06,03,49,2.70
2018,03,06,03,50,2.70
2018,03,06,03,51,2.70
2018,03,06,03,52,2.70
2018,03,06,03,53,2.70
2018,03,06,03,54,2.70
2018,03,06,03,55,2.70
2018,03,06,03,56,2.70
2018,03,06,03,57,2.70
2018,03,06,03,58,2.70
2018,03,06,03,59,2.70
2018,03,06,04,00,2.70
2018,03,06,04,01,2.70
2018,03,06,04,02,2.70
2018,03,06,04,03,2.70
2018,03,06,04,04,2.70
2018,03,06,04,05,2.70
2018,03,06,04,06,2.70
2018,03,06,04,07,2.70
2018,03,06,04,08,2.70
2018,03,06,04,09,2.70
2018,03,06,04,10,2.70
2018,03,06,04,11,2.70
2018,03,06,04,12,2.70
2018,03,06,04,13,2.70
2018,03,06,04,14,2.70
2018,03,06,04,15,2.70
2018,03,06,04,16,2.70
2018,03,06,04,17,2.70
2018,03,06,04,18,2.70
2018,03,06,04,19,2.70
2018,03,06,04,20,2.80
2018,03,06,04,21,2.70
2018,03,06,04,22,2.70
2018,03,06,04,23,2.70
2018,03,06,04,24,2.70
2018,03,06,04,25,2.70
2018,03,06,04,26,2.70
2018,03,06,04,27,2.70
2018,03,06,04,28,2.70
2018,03,06,04,29,2.70
2018,03,06,04,30,2.70
2018,03,06,04,31,2.70
2018,03,06,04,32,2.70
2018,03,06,04,33,2.70
2018,03,06,04,34,2.70
2018,03,06,04,35,2.70
2018,03,06,04,36,2.70
2018,03,06,04,37,2.70
2018,03,06,04,38,2.70
2018,03,06,04,39,2.70
2018,03,06,04,40,2.70
2018,03,06,04,41,2.70
2018,03,06,04,42,2.70
2018,03,06,04,43,2.70
2018,03,06,04,44,2.70
2018,03,06,04,45,2.70
2018,03,06,04,46,2.70
2018,03,06,04,47,2.70
2018,03,06,04,48,2.70
2018,03,06,04,49,2.70
2018,03,06,04,50,2.70
2018,03,06,04,51,2.70
2018,03,06,04,52,2.70
2018,03,06,04,53,2.70
2018,03,06,04,54,2.70
2018,03,06,04,55,2.70
2018,03,06,04,56,2.70
2018,03,06,04,57,2.70
2018,03,06,04,58,2.70
2018,03,06,04,59,2.70
2018,03,06,05,00,2.70
2018,03,06,05,01,2.70
2018,03,06,05,02,2.70
2018,03,06,05,03,2.70
2018,03,06,05,04,2.70
2018,03,06,05,05,2.70
2018,03,06,05,06,2.70
2018,03,06,05,07,2.70
2018,03,06,05,08,2.70
2018,03,06,05,09,2.70
2018,03,06,05,10,2.70
2018,03,06,05,11,2.70
2018,03,06,05,12,2.70
2018,03,06,05,13,2.70
2018,03,06,05,14,2.70
2018,03,06,05,15,2.70
2018,03,06,05,16,2.70
2018,03,06,05,17,2.70
2018,03,06,05,18,2.70
2018,03,06,05,19,2.70
2018,03,06,05,20,2.70
2018,03,06,05,21,2.70
2018,03,06,05,22,2.70
2018,03,06,05,23,2.70
2018,03,06,05,24,2.70
2018,03,06,05,25,2.70
2018,03,06,05,26,2.70
2018,03,06,05,27,2.70
2018,03,06,05,28,2.70
2018,03,06,05,29,2.70
2018,03,06,05,30,2.70
2018,03,06,05,31,2.70
2018,03,06,05,32,2.70
2018,03,06,05,33,2.70
2018,03,06,05,34,2.70
2018,03,06,05,35,2.70
2018,03,06,05,36,2.70
2018,03,06,05,37,2.70
2018,03,06,05,38,2.80
2018,03,06,05,39,2.70
2018,03,06,05,40,2.70
2018,03,06,05,41,2.80
2018,03,06,05,42,2.80
2018,03,06,05,43,2.70
2018,03,06,05,44,2.80
2018,03,06,05,45,2.80
2018,03,06,05,46,2.80
2018,03,06,05,47,2.80
2018,03,06,05,48,2.80
2018,03,06,05,49,2.80
2018,03,06,05,50,2.80
2018,03,06,05,51,2.80
2018,03,06,05,52,2.80
2018,03,06,05,53,2.80
2018,03,06,05,54,2.80
2018,03,06,05,55,2.80
2018,03,06,05,56,2.80
2018,03,06,05,57,2.80
2018,03,06,05,58,2.80
2018,03,06,05,59,2.80
2018,03,06,06,00,2.80
2018,03,06,06,01,2.80
2018,03,06,06,02,2.80
2018,03,06,06,03,2.80
2018,03,06,06,04,2.80
2018,03,06,06,05,2.80
2018,03,06,06,06,2.80
2018,03,06,06,07,2.80
2018,03,06,06,08,2.80
2018,03,06,06,09,2.80
2018,03,06,06,10,2.80
2018,03,06,06,11,2.80
2018,03,06,06,12,2.80
2018,03,06,06,13,2.80
2018,03,06,06,14,2.80
2018,03,06,06,15,2.80
2018,03,06,06,16,2.80
2018,03,06,06,17,2.80
2018,03,06,06,18,2.80
2018,03,06,06,19,2.80
2018,03,06,06,20,2.80
2018,03,06,06,21,2.80
2018,03,06,06,22,2.80
2018,03,06,06,23,2.80
2018,03,06,06,24,2.80
2018,03,06,06,25,2.90
2018,03,06,06,26,2.90
2018,03,06,06,27,2.90
2018,03,06,06,28,2.90
2018,03,06,06,29,2.90
2018,03,06,06,30,2.90
2018,03,06,06,31,2.90
2018,03,06,06,32,2.90
2018,03,06,06,33,2.90
2018,03,06,06,34,2.90
2018,03,06,06,35,2.90
2018,03,06,06,36,2.90
2018,03,06,06,37,2.90
2018,03,06,06,38,2.90
2018,03,06,06,39,2.90
2018,03,06,06,40,2.90
2018,03,06,06,41,2.90
2018,03,06,06,42,2.90
2018,03,06,06,43,2.90
2018,03,06,06,44,2.90
2018,03,06,06,45,2.90
2018,03,06,06,46,2.90
2018,03,06,06,47,2.90
2018,03,06,06,48,2.90
2018,03,06,06,49,2.90
2018,03,06,06,50,2.90
2018,03,06,06,51,2.90
2018,03,06,06,52,2.90
2018,03,06,06,53,2.90
2018,03,06,06,54,2.90
2018,03,06,06,55,2.90
2018,03,06,06,56,2.90
2018,03,06,06,57,2.90
2018,03,06,06,58,2.90
2018,03,06,06,59,2.90
2018,03,06,07,00,2.90
2018,03,06,07,01,2.90
2018,03,06,07,02,2.90
2018,03,06,07,03,2.90
2018,03,06,07,04,2.80
2018,03,06,07,05,2.80
2018,03,06,07,06,2.90
2018,03,06,07,07,2.80
2018,03,06,07,08,2.80
2018,03,06,07,09,2.80
2018,03,06,07,10,2.80
2018,03,06,07,11,2.80
2018,03,06,07,12,2.80
2018,03,06,07,13,2.80
2018,03,06,07,14,2.80
2018,03,06,07,15,2.80
2018,03,06,07,16,2.80
2018,03,06,07,17,2.80
2018,03,06,07,18,2.80
2018,03,06,07,19,2.80
2018,03,06,07,20,2.80
2018,03,06,07,21,2.80
2018,03,06,07,22,2.80
2018,03,06,07,23,2.80
2018,03,06,07,24,2.80
2018,03,06,07,25,2.80
2018,03,06,07,26,2.80
2018,03,06,07,27,2.80
2018,03,06,07,28,2.80
2018,03,06,07,29,2.80
2018,03,06,07,30,2.80
2018,03,06,07,31,2.80
2018,03,06,07,32,2.80
2018,03,06,07,33,2.80
2018,03,06,07,34,2.80
2018,03,06,07,35,2.80
2018,03,06,07,36,2.80
2018,03,06,07,37,2.80
2018,03,06,07,38,2.80
2018,03,06,07,39,2.80
2018,03,06,07,40,2.90
2018,03,06,07,41,2.90
2018,03,06,07,42,2.90
2018,03,06,07,43,2.90
2018,03,06,07,44,2.90
2018,03,06,07,45,2.90
2018,03,06,07,46,2.90
2018,03,06,07,47,2.90
2018,03,06,07,48,2.90
2018,03,06,07,49,2.90
2018,03,06,07,50,3.00
2018,03,06,07,51,3.00
2018,03,06,07,52,3.00
2018,03,06,07,53,3.00
2018,03,06,07,54,3.00
2018,03,06,07,55,3.00
2018,03,06,07,56,3.10
2018,03,06,07,57,3.10
2018,03,06,07,58,3.10
2018,03,06,07,59,3.10
2018,03,06,08,00,3.10
2018,03,06,08,01,3.10
2018,03,06,08,02,3.10
2018,03,06,08,03,3.10
2018,03,06,08,04,3.10
2018,03,06,08,05,3.20
2018,03,06,08,06,3.10
2018,03,06,08,07,3.20
2018,03,06,08,08,3.20
2018,03,06,08,09,3.20
2018,03,06,08,10,3.20
2018,03,06,08,11,3.20
2018,03,06,08,12,3.20
2018,03,06,08,13,3.20
2018,03,06,08,14,3.20
2018,03,06,08,15,3.20
2018,03,06,08,16,3.20
2018,03,06,08,17,3.30
2018,03,06,08,18,3.30
2018,03,06,08,19,3.30
2018,03,06,08,20,3.30
2018,03,06,08,21,3.30
2018,03,06,08,22,3.30
2018,03,06,08,23,3.30
2018,03,06,08,24,3.30
2018,03,06,08,25,3.30
2018,03,06,08,26,3.40
2018,03,06,08,27,3.40
2018,03,06,08,28,3.40
2018,03,06,08,29,3.40
2018,03,06,08,30,3.40
2018,03,06,08,31,3.40
2018,03,06,08,32,3.50
2018,03,06,08,33,3.50
2018,03,06,08,34,3.50
2018,03,06,08,35,3.50
2018,03,06,08,36,3.50
2018,03,06,08,37,3.50
2018,03,06,08,38,3.50
2018,03,06,08,39,3.60
2018,03,06,08,40,3.60
2018,03,06,08,41,3.60
2018,03,06,08,42,3.60
2018,03,06,08,43,3.60
2018,03,06,08,44,3.60
2018,03,06,08,45,3.70
2018,03,06,08,46,3.70
2018,03,06,08,47,3.70
2018,03,06,08,48,3.70
2018,03,06,08,49,3.70
2018,03,06,08,50,3.70
2018,03,06,08,51,3.70
2018,03,06,08,52,3.70
2018,03,06,08,53,3.80
2018,03,06,08,54,3.80
2018,03,06,08,55,3.80
2018,03,06,08,56,3.80
2018,03,06,08,57,3.80
2018,03,06,08,58,3.80
2018,03,06,08,59,3.80
2018,03,06,09,00,3.90
2018,03,06,09,01,3.90
2018,03,06,09,02,3.90
2018,03,06,09,03,3.90
2018,03,06,09,04,4.00
2018,03,06,09,05,4.00
2018,03,06,09,06,4.00
2018,03,06,09,07,4.00
2018,03,06,09,08,4.00
2018,03,06,09,09,4.10
2018,03,06,09,10,4.10
2018,03,06,09,11,4.00
2018,03,06,09,12,4.00
2018,03,06,09,13,4.00
2018,03,06,09,14,4.10
2018,03,06,09,15,4.10
2018,03,06,09,16,4.10
2018,03,06,09,17,4.10
2018,03,06,09,18,4.10
2018,03,06,09,19,4.10
2018,03,06,09,20,4.10
2018,03,06,09,21,4.10
2018,03,06,09,22,4.10
2018,03,06,09,23,4.10
2018,03,06,09,24,4.20
2018,03,06,09,25,4.20
2018,03,06,09,26,4.20
2018,03,06,09,27,4.20
2018,03,06,09,28,4.30
2018,03,06,09,29,4.30
2018,03,06,09,30,4.30
2018,03,06,09,31,4.30
2018,03,06,09,32,4.30
2018,03,06,09,33,4.30
2018,03,06,09,34,4.30
2018,03,06,09,35,4.40
2018,03,06,09,36,4.40
2018,03,06,09,37,4.40
2018,03,06,09,38,4.40
2018,03,06,09,39,4.50
2018,03,06,09,40,4.50
2018,03,06,09,41,4.50
2018,03,06,09,42,4.50
2018,03,06,09,43,4.60
2018,03,06,09,44,4.60
2018,03,06,09,45,4.60
2018,03,06,09,46,4.60
2018,03,06,09,47,4.50
2018,03,06,09,48,4.50
2018,03,06,09,49,4.50
2018,03,06,09,50,4.50
2018,03,06,09,51,4.50
2018,03,06,09,52,4.50
2018,03,06,09,53,4.50
2018,03,06,09,54,4.50
2018,03,06,09,55,4.50
2018,03,06,09,56,4.60
2018,03,06,09,57,4.60
2018,03,06,09,58,4.70
2018,03,06,09,59,4.70
2018,03,06,10,00,4.70
2018,03,06,10,01,4.70
2018,03,06,10,02,4.70
2018,03,06,10,03,4.80
2018,03,06,10,04,4.80
2018,03,06,10,05,4.80
2018,03,06,10,06,4.80
2018,03,06,10,07,4.80
2018,03,06,10,08,4.80
2018,03,06,10,09,4.80
2018,03,06,10,10,4.80
2018,03,06,10,11,4.80
2018,03,06,10,12,4.80
2018,03,06,10,13,4.80
2018,03,06,10,14,4.80
2018,03,06,10,15,4.80
2018,03,06,10,16,4.90
2018,03,06,10,17,4.90
2018,03,06,10,18,4.90
2018,03,06,10,19,4.80
2018,03,06,10,20,4.90
2018,03,06,10,21,4.90
2018,03,06,10,22,4.90
2018,03,06,10,23,5.00
2018,03,06,10,24,5.00
2018,03,06,10,25,5.00
2018,03,06,10,26,5.10
2018,03,06,10,27,5.10
2018,03,06,10,28,5.10
2018,03,06,10,29,5.10
2018,03,06,10,30,5.10
2018,03,06,10,31,5.10
2018,03,06,10,32,5.10
2018,03,06,10,33,5.10
2018,03,06,10,34,5.10
2018,03,06,10,35,5.10
2018,03,06,10,36,5.10
2018,03,06,10,37,5.10
2018,03,06,10,38,5.10
2018,03,06,10,39,5.20
2018,03,06,10,40,5.20
2018,03,06,10,41,5.20
2018,03,06,10,42,5.20
2018,03,06,10,43,5.20
2018,03,06,10,44,5.20
2018,03,06,10,45,5.20
2018,03,06,10,46,5.30
2018,03,06,10,47,5.30
2018,03,06,10,48,5.30
2018,03,06,10,49,5.30
2018,03,06,10,50,5.30
2018,03,06,10,51,5.40
2018,03,06,10,52,5.40
2018,03,06,10,53,5.40
2018,03,06,10,54,5.40
2018,03,06,10,55,5.50
2018,03,06,10,56,5.50
2018,03,06,10,57,5.50
2018,03,06,10,58,5.40
2018,03,06,10,59,5.40
2018,03,06,11,00,5.40
2018,03,06,11,01,5.40
2018,03,06,11,02,5.40
2018,03,06,11,03,5.40
2018,03,06,11,04,5.50
2018,03,06,11,05,5.50
2018,03,06,11,06,5.50
2018,03,06,11,07,5.50
2018,03,06,11,08,5.50
2018,03,06,11,09,5.60
2018,03,06,11,10,5.60
2018,03,06,11,11,5.60
2018,03,06,11,12,5.60
2018,03,06,11,13,5.60
2018,03,06,11,14,5.70
2018,03,06,11,15,5.70
2018,03,06,11,16,5.70
2018,03,06,11,17,5.70
2018,03,06,11,18,5.70
2018,03,06,11,19,5.70
2018,03,06,11,20,5.70
2018,03,06,11,21,5.70
2018,03,06,11,22,5.70
2018,03,06,11,23,5.70
2018,03,06,11,24,5.70
2018,03,06,11,25,5.80
2018,03,06,11,26,5.80
2018,03,06,11,27,5.80
2018,03,06,11,28,5.80
2018,03,06,11,29,5.80
2018,03,06,11,30,5.80
2018,03,06,11,31,5.80
2018,03,06,11,32,5.80
2018,03,06,11,33,5.90
2018,03,06,11,34,5.90
2018,03,06,11,35,5.90
2018,03,06,11,36,5.90
2018,03,06,11,37,6.00
2018,03,06,11,38,6.10
2018,03,06,11,39,6.10
2018,03,06,11,40,6.10
2018,03,06,11,41,6.20
2018,03,06,11,42,6.20
2018,03,06,11,43,6.20
2018,03,06,11,44,6.20
2018,03,06,11,45,6.30
2018,03,06,11,46,6.30
2018,03,06,11,47,6.30
2018,03,06,11,48,6.30
2018,03,06,11,49,6.30
2018,03,06,11,50,6.40
2018,03,06,11,51,6.40
2018,03,06,11,52,6.50
2018,03,06,11,53,6.50
2018,03,06,11,54,6.60
2018,03,06,11,55,6.60
2018,03,06,11,56,6.60
2018,03,06,11,57,6.60
2018,03,06,11,58,6.60
2018,03,06,11,59,6.60
2018,03,06,12,00,6.60
2018,03,06,12,01,6.60
2018,03,06,12,02,6.60
2018,03,06,12,03,6.60
2018,03,06,12,04,6.70
2018,03,06,12,05,6.70
2018,03,06,12,06,6.70
2018,03,06,12,07,6.70
2018,03,06,12,08,6.80
2018,03,06,12,09,6.80
2018,03,06,12,10,6.80
2018,03,06,12,11,6.80
2018,03,06,12,12,6.80
2018,03,06,12,13,6.90
2018,03,06,12,14,6.90
2018,03,06,12,15,6.90
2018,03,06,12,16,7.00
2018,03,06,12,17,7.00
2018,03,06,12,18,7.10
2018,03,06,12,19,7.10
2018,03,06,12,20,7.00
2018,03,06,12,21,7.00
2018,03,06,12,22,7.00
2018,03,06,12,23,6.90
2018,03,06,12,24,6.90
2018,03,06,12,25,6.90
2018,03,06,12,26,6.90
2018,03,06,12,27,6.90
2018,03,06,12,28,7.00
2018,03,06,12,29,7.00
2018,03,06,12,30,7.00
2018,03,06,12,31,7.00
2018,03,06,12,32,7.00
2018,03,06,12,33,7.00
2018,03,06,12,34,7.10
2018,03,06,12,35,7.10
2018,03,06,12,36,7.10
2018,03,06,12,37,7.10
2018,03,06,12,38,7.20
2018,03,06,12,39,7.20
2018,03,06,12,40,7.20
2018,03,06,12,41,7.20
2018,03,06,12,42,7.20
2018,03,06,12,43,7.20
2018,03,06,12,44,7.20
2018,03,06,12,45,7.20
2018,03,06,12,46,7.20
2018,03,06,12,47,7.20
2018,03,06,12,48,7.20
2018,03,06,12,49,7.20
2018,03,06,12,50,7.20
2018,03,06,12,51,7.20
2018,03,06,12,52,7.20
2018,03,06,12,53,7.20
2018,03,06,12,54,7.30
2018,03,06,12,55,7.30
2018,03,06,12,56,7.40
2018,03,06,12,57,7.50
2018,03,06,12,58,7.50
2018,03,06,12,59,7.50
2018,03,06,13,00,7.50
2018,03,06,13,01,7.60
2018,03,06,13,02,7.60
2018,03,06,13,03,7.60
2018,03,06,13,04,7.70
2018,03,06,13,05,7.70
2018,03,06,13,06,7.70
2018,03,06,13,07,7.70
2018,03,06,13,08,7.70
2018,03,06,13,09,7.70
2018,03,06,13,10,7.60
2018,03,06,13,11,7.60
2018,03,06,13,12,7.60
2018,03,06,13,13,7.60
2018,03,06,13,14,7.60
2018,03,06,13,15,7.60
2018,03,06,13,16,7.60
2018,03,06,13,17,7.60
2018,03,06,13,18,7.60
2018,03,06,13,19,7.60
2018,03,06,13,20,7.60
2018,03,06,13,21,7.60
2018,03,06,13,22,7.60
2018,03,06,13,23,7.70
2018,03,06,13,24,7.70
2018,03,06,13,25,7.70
2018,03,06,13,26,7.70
2018,03,06,13,27,7.70
2018,03,06,13,28,7.80
2018,03,06,13,29,7.80
2018,03,06,13,30,7.80
2018,03,06,13,31,7.90
2018,03,06,13,32,7.90
2018,03,06,13,33,7.90
2018,03,06,13,34,7.90
2018,03,06,13,35,8.00
2018,03,06,13,36,8.00
2018,03,06,13,37,8.00
2018,03,06,13,38,7.90
2018,03,06,13,39,7.90
2018,03,06,13,40,7.90
2018,03,06,13,41,7.90
2018,03,06,13,42,7.90
2018,03,06,13,43,7.90
2018,03,06,13,44,7.90
2018,03,06,13,45,7.90
2018,03,06,13,46,7.80
2018,03,06,13,47,7.80
2018,03,06,13,48,7.80
2018,03,06,13,49,7.90
2018,03,06,13,50,8.00
2018,03,06,13,51,8.00
2018,03,06,13,52,8.00
2018,03,06,13,53,8.10
2018,03,06,13,54,8.10
2018,03,06,13,55,8.10
2018,03,06,13,56,8.10
2018,03,06,13,57,8.10
2018,03,06,13,58,8.10
2018,03,06,13,59,8.10
2018,03,06,14,00,8.10
2018,03,06,14,01,8.10
2018,03,06,14,02,8.20
2018,03,06,14,03,8.10
2018,03,06,14,04,8.10
2018,03,06,14,05,8.10
2018,03,06,14,06,8.10
2018,03,06,14,07,8.10
2018,03,06,14,08,8.10
2018,03,06,14,09,8.10
2018,03,06,14,10,8.10
2018,03,06,14,11,8.20
2018,03,06,14,12,8.20
2018,03,06,14,13,8.10
2018,03,06,14,14,8.10
2018,03,06,14,15,8.10
2018,03,06,14,16,8.10
2018,03,06,14,17,8.20
2018,03,06,14,18,8.20
2018,03,06,14,19,8.20
2018,03,06,14,20,8.20
2018,03,06,14,21,8.30
2018,03,06,14,22,8.30
2018,03,06,14,23,8.40
2018,03,06,14,24,8.40
2018,03,06,14,25,8.50
2018,03,06,14,26,8.50
2018,03,06,14,27,8.50
2018,03,06,14,28,8.50
2018,03,06,14,29,8.40
2018,03,06,14,30,8.40
2018,03,06,14,31,8.40
2018,03,06,14,32,8.40
2018,03,06,14,33,8.40
2018,03,06,14,34,8.40
2018,03,06,14,35,8.50
2018,03,06,14,36,8.50
2018,03,06,14,37,8.60
2018,03,06,14,38,8.50
2018,03,06,14,39,8.40
2018,03,06,14,40,8.30
2018,03,06,14,41,8.30
2018,03,06,14,42,8.30
2018,03,06,14,43,8.30
2018,03,06,14,44,8.30
2018,03,06,14,45,8.30
2018,03,06,14,46,8.30
2018,03,06,14,47,8.30
2018,03,06,14,48,8.30
2018,03,06,14,49,8.30
2018,03,06,14,50,8.40
2018,03,06,14,51,8.40
2018,03,06,14,52,8.40
2018,03,06,14,53,8.40
2018,03,06,14,54,8.40
2018,03,06,14,55,8.30
2018,03,06,14,56,8.30
2018,03,06,14,57,8.30
2018,03,06,14,58,8.30
2018,03,06,14,59,8.30
2018,03,06,15,00,8.30
2018,03,06,15,01,8.20
2018,03,06,15,02,8.20
2018,03,06,15,03,8.30
2018,03,06,15,04,8.30
2018,03,06,15,05,8.40
2018,03,06,15,06,8.40
2018,03,06,15,07,8.50
2018,03,06,15,08,8.50
2018,03,06,15,09,8.60
2018,03,06,15,10,8.60
2018,03,06,15,11,8.60
2018,03,06,15,12,8.60
2018,03,06,15,13,8.60
2018,03,06,15,14,8.60
2018,03,06,15,15,8.50
2018,03,06,15,16,8.50
2018,03,06,15,17,8.40
2018,03,06,15,18,8.40
2018,03,06,15,19,8.40
2018,03,06,15,20,8.40
2018,03,06,15,21,8.40
2018,03,06,15,22,8.40
2018,03,06,15,23,8.40
2018,03,06,15,24,8.40
2018,03,06,15,25,8.40
2018,03,06,15,26,8.30
2018,03,06,15,27,8.30
2018,03,06,15,28,8.20
2018,03,06,15,29,8.20
2018,03,06,15,30,8.30
2018,03,06,15,31,8.30
2018,03,06,15,32,8.30
2018,03,06,15,33,8.40
2018,03,06,15,34,8.40
2018,03,06,15,35,8.40
2018,03,06,15,36,8.40
2018,03,06,15,37,8.40
2018,03,06,15,38,8.40
2018,03,06,15,39,8.40
2018,03,06,15,40,8.40
2018,03,06,15,41,8.40
2018,03,06,15,42,8.50
2018,03,06,15,43,8.50
2018,03,06,15,44,8.50
2018,03,06,15,45,8.50
2018,03,06,15,46,8.60
2018,03,06,15,47,8.50
2018,03,06,15,48,8.50
2018,03,06,15,49,8.50
2018,03,06,15,50,8.40
2018,03,06,15,51,8.40
2018,03,06,15,52,8.40
2018,03,06,15,53,8.40
2018,03,06,15,54,8.40
2018,03,06,15,55,8.40
2018,03,06,15,56,8.30
2018,03,06,15,57,8.30
2018,03,06,15,58,8.30
2018,03,06,15,59,8.30
2018,03,06,16,00,8.30
2018,03,06,16,01,8.30
2018,03,06,16,02,8.30
2018,03,06,16,03,8.30
2018,03,06,16,04,8.30
2018,03,06,16,05,8.30
2018,03,06,16,06,8.30
2018,03,06,16,07,8.20
2018,03,06,16,08,8.20
2018,03,06,16,09,8.10
2018,03,06,16,10,8.10
2018,03,06,16,11,8.10
2018,03,06,16,12,8.10
2018,03,06,16,13,8.00
2018,03,06,16,14,8.00
2018,03,06,16,15,8.00
2018,03,06,16,16,8.00
2018,03,06,16,17,7.90
2018,03,06,16,18,7.90
2018,03,06,16,19,7.90
2018,03,06,16,20,7.90
2018,03,06,16,21,7.90
2018,03,06,16,22,7.90
2018,03,06,16,23,7.90
2018,03,06,16,24,7.90
2018,03,06,16,25,7.90
2018,03,06,16,26,7.80
2018,03,06,16,27,7.80
2018,03,06,16,28,7.80
2018,03,06,16,29,7.80
2018,03,06,16,30,7.80
2018,03,06,16,31,7.70
2018,03,06,16,32,7.70
2018,03,06,16,33,7.70
2018,03,06,16,34,7.70
2018,03,06,16,35,7.70
2018,03,06,16,36,7.70
2018,03,06,16,37,7.70
2018,03,06,16,38,7.70
2018,03,06,16,39,7.70
2018,03,06,16,40,7.70
2018,03,06,16,41,7.70
2018,03,06,16,42,7.70
2018,03,06,16,43,7.60
2018,03,06,16,44,7.60
2018,03,06,16,45,7.60
2018,03,06,16,46,7.60
2018,03,06,16,47,7.60
2018,03,06,16,48,7.60
2018,03,06,16,49,7.60
2018,03,06,16,50,7.60
2018,03,06,16,51,7.60
2018,03,06,16,52,7.60
2018,03,06,16,53,7.60
2018,03,06,16,54,7.60
2018,03,06,16,55,7.60
2018,03,06,16,56,7.60
2018,03,06,16,57,7.60
2018,03,06,16,58,7.60
2018,03,06,16,59,7.60
2018,03,06,17,00,7.60
2018,03,06,17,01,7.60
2018,03,06,17,02,7.60
2018,03,06,17,03,7.60
2018,03,06,17,04,7.60
2018,03,06,17,05,7.60
2018,03,06,17,06,7.60
2018,03,06,17,07,7.60
2018,03,06,17,08,7.60
2018,03,06,17,09,7.60
2018,03,06,17,10,7.50
2018,03,06,17,11,7.50
2018,03,06,17,12,7.50
2018,03,06,17,13,7.50
2018,03,06,17,14,7.50
2018,03,06,17,15,7.50
2018,03,06,17,16,7.40
2018,03,06,17,17,7.40
2018,03,06,17,18,7.40
2018,03,06,17,19,7.40
2018,03,06,17,20,7.40
2018,03,06,17,21,7.40
2018,03,06,17,22,7.40
2018,03,06,17,23,7.30
2018,03,06,17,24,7.30
2018,03,06,17,25,7.30
2018,03,06,17,26,7.30
2018,03,06,17,27,7.30
2018,03,06,17,28,7.30
2018,03,06,17,29,7.30
2018,03,06,17,30,7.30
2018,03,06,17,31,7.30
2018,03,06,17,32,7.30
2018,03,06,17,33,7.30
2018,03,06,17,34,7.30
2018,03,06,17,35,7.30
2018,03,06,17,36,7.30
2018,03,06,17,37,7.30
2018,03,06,17,38,7.30
2018,03,06,17,39,7.30
2018,03,06,17,40,7.30
2018,03,06,17,41,7.30
2018,03,06,17,42,7.30
2018,03,06,17,43,7.30
2018,03,06,17,44,7.30
2018,03,06,17,45,7.20
2018,03,06,17,46,7.20
2018,03,06,17,47,7.20
2018,03,06,17,48,7.20
2018,03,06,17,49,7.20
2018,03,06,17,50,7.20
2018,03,06,17,51,7.20
2018,03,06,17,52,7.20
2018,03,06,17,53,7.20
2018,03,06,17,54,7.20
2018,03,06,17,55,7.20
2018,03,06,17,56,7.20
2018,03,06,17,57,7.20
2018,03,06,17,58,7.20
2018,03,06,17,59,7.10
2018,03,06,18,00,7.10
2018,03,06,18,01,7.10
2018,03,06,18,02,7.10
2018,03,06,18,03,7.10
2018,03,06,18,04,7.00
2018,03,06,18,05,7.00
2018,03,06,18,06,7.00